Regional Weather Roundup
Issued by NWS

Home | Current Version | Previous Version | Graphics & Text | Print | Product List | Glossary On
Versions: 1 2 3 4 5 6 7 8 9 10 11 12 13 14 15 16 17 18 19 20 21 22 23 24 25 26 27 28 29 30 31 32 33 34 35 36 37 38 39 40 41 42 43 44 45 46 47 48 49 50
000
ASUS43 KLMK 031910
RWRKY
KENTUCKY REGIONAL WEATHER ROUNDUP
NATIONAL WEATHER SERVICE LOUISVILLE KY
300 PM EDT THU SEP 03 2015

NOTE "FAIR" INDICATES FEW OR NO CLOUDS BELOW 12,000 FEET
WITH NO SIGNIFICANT WEATHER AND/OR OBSTRUCTIONS TO VISIBILITY.

KYZ001>023-026-027-061>063-070>075-032000-
WESTERN AND SOUTH CENTRAL KENTUCKY

CITY           SKY/WX    TMP DP  RH WIND       PRES   REMARKS
PADUCAH        SUNNY     92  67  43 VRB5      29.97F HX  95
HENDERSON      MOSUNNY   90  70  51 N6        29.97S HX  95
OWENSBORO      PTSUNNY   93  68  44 VRB7      29.98F HX  97
HOPKINSVILLE   MOSUNNY   91  66  43 NE5       29.98F HX  94
BOWLING GREEN  PTSUNNY   91  64  40 NE5       29.99F HX  92
GLASGOW        PTSUNNY   92  62  36 NE3       29.99F HX  92
$$

KYZ024-025-028>034-038-045-046-053-032000-
NORTH CENTRAL KENTUCKY

CITY           SKY/WX    TMP DP  RH WIND       PRES   REMARKS
LOUISVILLE/SDF PTSUNNY   93  65  39 W10       29.98F HX  95
LOUISVILLE/LOU MOSUNNY   89  65  44 CALM      29.99F HX  91
FORT KNOX      MOSUNNY   88  67  48 NW5       29.99F HX  91
$$

KYZ035>037-039>044-047>052-055>060-089>105-032000-
NORTHEAST KENTUCKY

CITY           SKY/WX    TMP DP  RH WIND       PRES   REMARKS
LEXINGTON      SUNNY     91  63  39 NW9       30.01F HX  92
COVINGTON      MOSUNNY   91  65  41 W6        29.99F HX  93
FRANKFORT      MOSUNNY   90  64  42 VRB6      30.00F HX  91
$$

KYZ054-064>069-076>088-106>120-032000-
SOUTHEAST KENTUCKY

CITY           SKY/WX    TMP DP  RH WIND       PRES   REMARKS
JACKSON        MOSUNNY   81  67  62 VRB6      30.03F
LONDON         MOSUNNY   90  62  39 W3        30.02F HX  90
SOMERSET       PTSUNNY   88  63  42 CALM      30.02F
MIDDLESBORO    MOSUNNY   87  66  50 CALM      30.02F
MONTICELLO     CLEAR     89  66  46 NE3       30.04F HX  91
$$




USA.gov is the U.S. government's official web portal to all federal, state and local government web resources and services.